Volver al catálogo

ONEWEB-0187

ActivoComunicacionesPO
NORAD 48221·PAYLOAD·🇬🇧 United Kingdom

Lanzado Apr 25, 2021 desde Vostochny Cosmodrome

Loading…

Próximos Pases (próximas 24 horas)

TLE

ActualizadoSource: CelesTrak SupGP

Época: Sep 14, 2026, 15:46 UTC

1 48221C 21031M   26257.65746944 -.00001783  00000+0 -48138-2 0  2574
2 48221  87.8903 271.8700 0001812  92.3122   7.2610 13.14509162    19

Sigue ONEWEB-0187 en tiempo real con AllMySat

Download on the App Store